Location: Unspecified
(0.0000°N, 0.0000°E)
Time: 23:53:12
(UTC+02:00)

ATLAS V CENTAUR R/B - Visible Passes

Search period start: 19 September 2014 00:00
Search period end: 29 September 2014 00:00
Orbit: 228 x 30407 km, 17.8° (Epoch: 19 September)

Date Brightness Start Highest point End Pass type
(mag) Time Alt. Az. Time Alt. Az. Time Alt. Az.
19 Sep 7.7 06:35:17 21° W 07:59:07 71° SW 14:40:04 10° E visible
21 Sep 7.9 02:45:37 55° ENE 02:45:37 55° ENE 10:24:19 10° ESE visible
22 Sep 7.7 05:15:19 50° WNW 05:42:23 83° SSW 13:13:37 10° E visible
24 Sep 8.5 01:23:56 25° E 01:23:56 25° E 08:36:59 10° ESE visible
25 Sep 7.7 03:52:35 84° N 03:53:39 85° NNE 11:41:54 10° E visible
26 Sep 7.7 06:20:51 26° W 14:01:59 72° S 14:22:43 10° E visible
28 Sep 8.1 02:27:06 51° E 02:27:06 51° E 10:02:01 10° ESE visible
